Weather in Krasnyye Ryabinki

Russia / Oryol Oblast     53°06′12″N   35°32′09″E
temp.,
°C
wind,
m/s
gust,
m/s
humid.,
%
clouds,
%
prec.,
mm/h
press.,
hPa
HPBL,
m
23 april, fri
fri2300:00+8s5138623 0.2 1016292
03:00+7s5138722 0.2 1016278
06:00+7s5148761 0.1 1015341
09:00+11ssw8147448 0.0 1015904
12:00+12ssw81473100 0.6 10131507
15:00+6w3590100 3.2 1015384
18:00+6nw3790100 3.8 1014665
21:00+5sw1290100 4.6 1014188
24 april, sat
sat2400:00+5w3877100 0.3 1012233
03:00+4wsw368499 0.4 1012220
06:00+2wsw37925 0.0 1012190
09:00+5wsw67735 0.3 1011846
12:00+6wsw8956100 0.8 10111940
15:00+6wsw81056100 1.6 10111740
18:00+5wnw6865100 0.9 10111380
21:00+3wnw71376100 1.3 1014718
25 april, sun
sun2500:00+1w613855 0.0 1015434
03:000wsw512895 0.0 1016328
06:00−1wsw512885 0.0 1016371
09:00+4wsw6106298 0.0 10161168
12:00+6wsw71154100 0.1 10151817
15:00+7w71065100 1.3 10141457
18:00+6wnw576571 0.6 10141356
21:00+1w377847 0.6 1016115
26 april, mon
mon2600:000wsw33825 0.0 101649
03:00−1wsw34875 0.0 101682
06:00−1wsw36855 0.0 1016155
09:00+5wsw45615 0.0 1016797
12:00+7sw5650100 1.0 10141816
15:00+8wsw774798 2.0 10132147
18:00+5wsw5767100 0.9 10131004
21:00+1wsw378321 1.3 1014138
27 april, tue
tue2700:00−1wsw38855 0.0 1014154
03:00−1wsw49855 0.0 1014174
06:00−1sw388544 0.0 1015183
09:00+5wsw5763100 0.0 1015715
12:00+7wsw4546100 0.4 10141982
15:00+8sw4444100 0.6 10131765
18:00+6w346498 0.1 1014444
21:00+2sw22762 0.1 101519